Year,Month,Day,Hour,Minute,Value (Times are PST for windgust in km/hr)
2010,10,07,00,35,1.60
2010,10,07,00,36,1.60
2010,10,07,00,38,1.60
2010,10,07,00,54,1.60
2010,10,07,00,55,1.60
2010,10,07,00,56,1.60
2010,10,07,00,57,1.60
2010,10,07,01,11,1.60
2010,10,07,01,46,1.60
2010,10,07,02,05,1.60
2010,10,07,02,07,1.60
2010,10,07,02,08,3.20
2010,10,07,02,09,3.20
2010,10,07,02,10,3.20
2010,10,07,02,11,1.60
2010,10,07,02,12,3.20
2010,10,07,02,13,3.20
2010,10,07,02,14,3.20
2010,10,07,02,15,3.20
2010,10,07,02,16,3.20
2010,10,07,02,17,1.60
2010,10,07,02,18,1.60
2010,10,07,02,29,3.20
2010,10,07,02,30,3.20
2010,10,07,02,31,1.60
2010,10,07,02,32,3.20
2010,10,07,02,33,3.20
2010,10,07,02,34,3.20
2010,10,07,02,35,1.60
2010,10,07,02,36,1.60
2010,10,07,03,10,1.60
2010,10,07,03,15,1.60
2010,10,07,03,34,1.60
2010,10,07,03,35,1.60
2010,10,07,03,37,1.60
2010,10,07,03,38,1.60
2010,10,07,03,39,1.60
2010,10,07,03,41,1.60
2010,10,07,03,43,1.60
2010,10,07,03,44,1.60
2010,10,07,03,45,1.60
2010,10,07,03,46,1.60
2010,10,07,03,47,3.20
2010,10,07,03,48,3.20
2010,10,07,03,49,3.20
2010,10,07,03,50,3.20
2010,10,07,03,51,6.40
2010,10,07,03,52,3.20
2010,10,07,03,53,3.20
2010,10,07,03,54,3.20
2010,10,07,03,55,3.20
2010,10,07,03,56,1.60
2010,10,07,03,57,1.60
2010,10,07,03,58,1.60
2010,10,07,03,59,1.60
2010,10,07,04,01,1.60
2010,10,07,04,02,1.60
2010,10,07,04,03,3.20
2010,10,07,04,04,1.60
2010,10,07,04,05,3.20
2010,10,07,04,06,1.60
2010,10,07,04,07,1.60
2010,10,07,04,08,3.20
2010,10,07,04,09,6.40
2010,10,07,04,10,1.60
2010,10,07,04,11,3.20
2010,10,07,04,12,6.40
2010,10,07,04,13,3.20
2010,10,07,04,14,3.20
2010,10,07,04,15,1.60
2010,10,07,04,16,3.20
2010,10,07,04,17,3.20
2010,10,07,04,18,1.60
2010,10,07,04,19,3.20
2010,10,07,04,20,6.40
2010,10,07,04,21,1.60
2010,10,07,04,22,3.20
2010,10,07,04,23,3.20
2010,10,07,04,24,1.60
2010,10,07,04,25,3.20
2010,10,07,04,26,3.20
2010,10,07,04,27,1.60
2010,10,07,04,28,1.60
2010,10,07,04,29,1.60
2010,10,07,04,30,1.60
2010,10,07,04,31,1.60
2010,10,07,04,32,3.20
2010,10,07,04,33,3.20
2010,10,07,04,34,1.60
2010,10,07,04,35,1.60
2010,10,07,04,36,3.20
2010,10,07,04,37,6.40
2010,10,07,04,38,6.40
2010,10,07,04,39,3.20
2010,10,07,04,40,3.20
2010,10,07,04,41,1.60
2010,10,07,04,42,3.20
2010,10,07,04,43,3.20
2010,10,07,04,44,9.60
2010,10,07,04,45,6.40
2010,10,07,04,46,6.40
2010,10,07,04,47,6.40
2010,10,07,04,48,8.10
2010,10,07,04,49,8.10
2010,10,07,04,50,6.40
2010,10,07,04,51,3.20
2010,10,07,04,52,3.20
2010,10,07,04,53,3.20
2010,10,07,04,54,11.30
2010,10,07,04,55,8.10
2010,10,07,04,56,8.10
2010,10,07,04,57,9.60
2010,10,07,04,58,9.60
2010,10,07,04,59,6.40
2010,10,07,05,00,11.30
2010,10,07,05,01,8.10
2010,10,07,05,02,8.10
2010,10,07,05,03,9.60
2010,10,07,05,04,14.50
2010,10,07,05,05,11.30
2010,10,07,05,06,16.10
2010,10,07,05,07,14.50
2010,10,07,05,08,9.60
2010,10,07,05,09,12.90
2010,10,07,05,10,9.60
2010,10,07,05,11,11.30
2010,10,07,05,12,9.60
2010,10,07,05,13,11.30
2010,10,07,05,14,14.50
2010,10,07,05,15,12.90
2010,10,07,05,16,9.60
2010,10,07,05,17,8.10
2010,10,07,05,18,12.90
2010,10,07,05,19,14.50
2010,10,07,05,20,8.10
2010,10,07,05,21,6.40
2010,10,07,05,22,8.10
2010,10,07,05,23,8.10
2010,10,07,05,24,8.10
2010,10,07,05,25,6.40
2010,10,07,05,26,9.60
2010,10,07,05,27,16.10
2010,10,07,05,28,12.90
2010,10,07,05,29,9.60
2010,10,07,05,30,6.40
2010,10,07,05,31,9.60
2010,10,07,05,32,9.60
2010,10,07,05,33,16.10
2010,10,07,05,34,14.50
2010,10,07,05,35,14.50
2010,10,07,05,36,11.30
2010,10,07,05,37,14.50
2010,10,07,05,38,17.70
2010,10,07,05,39,16.10
2010,10,07,05,40,9.60
2010,10,07,05,41,11.30
2010,10,07,05,42,8.10
2010,10,07,05,43,8.10
2010,10,07,05,44,11.30
2010,10,07,05,45,6.40
2010,10,07,05,46,11.30
2010,10,07,05,47,12.90
2010,10,07,05,48,9.60
2010,10,07,05,49,8.10
2010,10,07,05,50,8.10
2010,10,07,05,51,16.10
2010,10,07,05,52,12.90
2010,10,07,05,53,12.90
2010,10,07,05,54,19.30
2010,10,07,05,55,12.90
2010,10,07,05,56,12.90
2010,10,07,05,57,14.50
2010,10,07,05,58,14.50
2010,10,07,05,59,19.30
2010,10,07,06,00,12.90
2010,10,07,06,01,20.90
2010,10,07,06,02,19.30
2010,10,07,06,03,14.50
2010,10,07,06,04,14.50
2010,10,07,06,05,17.70
2010,10,07,06,06,14.50
2010,10,07,06,07,19.30
2010,10,07,06,08,11.30
2010,10,07,06,09,14.50
2010,10,07,06,10,9.60
2010,10,07,06,11,9.60
2010,10,07,06,12,12.90
2010,10,07,06,13,16.10
2010,10,07,06,14,11.30
2010,10,07,06,15,12.90
2010,10,07,06,16,17.70
2010,10,07,06,17,17.70
2010,10,07,06,18,16.10
2010,10,07,06,19,12.90
2010,10,07,06,20,11.30
2010,10,07,06,21,8.10
2010,10,07,06,22,4.80
2010,10,07,06,23,14.50
2010,10,07,06,24,17.70
2010,10,07,06,25,19.30
2010,10,07,06,26,16.10
2010,10,07,06,27,14.50
2010,10,07,06,28,11.30
2010,10,07,06,29,19.30
2010,10,07,06,30,22.50
2010,10,07,06,31,27.40
2010,10,07,06,32,9.60
2010,10,07,06,33,11.30
2010,10,07,06,34,12.90
2010,10,07,06,35,12.90
2010,10,07,06,36,9.60
2010,10,07,06,37,9.60
2010,10,07,06,38,8.10
2010,10,07,06,39,19.30
2010,10,07,06,40,12.90
2010,10,07,06,41,12.90
2010,10,07,06,42,20.90
2010,10,07,06,43,9.60
2010,10,07,06,44,11.30
2010,10,07,06,45,12.90
2010,10,07,06,46,17.70
2010,10,07,06,47,9.60
2010,10,07,06,48,9.60
2010,10,07,06,49,16.10
2010,10,07,06,50,17.70
2010,10,07,06,51,17.70
2010,10,07,06,52,24.20
2010,10,07,06,53,16.10
2010,10,07,06,54,16.10
2010,10,07,06,55,17.70
2010,10,07,06,56,16.10
2010,10,07,06,57,17.70
2010,10,07,06,58,16.10
2010,10,07,06,59,12.90
2010,10,07,07,00,20.90
2010,10,07,07,01,19.30
2010,10,07,07,02,12.90
2010,10,07,07,03,12.90
2010,10,07,07,04,20.90
2010,10,07,07,05,11.30
2010,10,07,07,06,11.30
2010,10,07,07,07,9.60
2010,10,07,07,08,14.50
2010,10,07,07,09,16.10
2010,10,07,07,10,20.90
2010,10,07,07,11,14.50
2010,10,07,07,12,19.30
2010,10,07,07,13,19.30
2010,10,07,07,14,14.50
2010,10,07,07,15,20.90
2010,10,07,07,16,17.70
2010,10,07,07,17,9.60
2010,10,07,07,18,19.30
2010,10,07,07,19,11.30
2010,10,07,07,20,11.30
2010,10,07,07,21,17.70
2010,10,07,07,22,16.10
2010,10,07,07,23,11.30
2010,10,07,07,24,19.30
2010,10,07,07,25,12.90
2010,10,07,07,26,16.10
2010,10,07,07,27,8.10
2010,10,07,07,28,9.60
2010,10,07,07,29,12.90
2010,10,07,07,30,12.90
2010,10,07,07,31,8.10
2010,10,07,07,32,9.60
2010,10,07,07,33,9.60
2010,10,07,07,34,14.50
2010,10,07,07,35,11.30
2010,10,07,07,36,14.50
2010,10,07,07,37,20.90
2010,10,07,07,38,19.30
2010,10,07,07,39,22.50
2010,10,07,07,40,12.90
2010,10,07,07,41,11.30
2010,10,07,07,42,9.60
2010,10,07,07,43,14.50
2010,10,07,07,44,16.10
2010,10,07,07,45,22.50
2010,10,07,07,46,17.70
2010,10,07,07,47,11.30
2010,10,07,07,48,16.10
2010,10,07,07,49,8.10
2010,10,07,07,50,8.10
2010,10,07,07,51,14.50
2010,10,07,07,52,14.50
2010,10,07,07,53,9.60
2010,10,07,07,54,11.30
2010,10,07,07,55,14.50
2010,10,07,07,56,14.50
2010,10,07,07,57,12.90
2010,10,07,07,58,12.90
2010,10,07,07,59,12.90
2010,10,07,08,00,14.50
2010,10,07,08,01,9.60
2010,10,07,08,02,16.10
2010,10,07,08,03,12.90
2010,10,07,08,04,9.60
2010,10,07,08,05,14.50
2010,10,07,08,06,17.70
2010,10,07,08,07,9.60
2010,10,07,08,08,17.70
2010,10,07,08,09,17.70
2010,10,07,08,10,11.30
2010,10,07,08,11,12.90
2010,10,07,08,12,11.30
2010,10,07,08,13,14.50
2010,10,07,08,14,14.50
2010,10,07,08,15,12.90
2010,10,07,08,16,14.50
2010,10,07,08,17,11.30
2010,10,07,08,18,19.30
2010,10,07,08,19,14.50
2010,10,07,08,20,17.70
2010,10,07,08,21,19.30
2010,10,07,08,22,16.10
2010,10,07,08,23,6.40
2010,10,07,08,24,11.30
2010,10,07,08,25,12.90
2010,10,07,08,26,11.30
2010,10,07,08,27,11.30
2010,10,07,08,28,11.30
2010,10,07,08,29,8.10
2010,10,07,08,30,14.50
2010,10,07,08,31,22.50
2010,10,07,08,32,16.10
2010,10,07,08,33,12.90
2010,10,07,08,34,16.10
2010,10,07,08,35,12.90
2010,10,07,08,36,11.30
2010,10,07,08,37,11.30
2010,10,07,08,38,12.90
2010,10,07,08,39,19.30
2010,10,07,08,40,19.30
2010,10,07,08,41,12.90
2010,10,07,08,42,22.50
2010,10,07,08,43,27.40
2010,10,07,08,44,24.20
2010,10,07,08,45,22.50
2010,10,07,08,46,29.00
2010,10,07,08,47,16.10
2010,10,07,08,48,22.50
2010,10,07,08,49,17.70
2010,10,07,08,50,19.30
2010,10,07,08,51,24.20
2010,10,07,08,52,8.10
2010,10,07,08,53,17.70
2010,10,07,08,54,20.90
2010,10,07,08,55,22.50
2010,10,07,08,56,16.10
2010,10,07,08,57,17.70
2010,10,07,08,58,22.50
2010,10,07,08,59,17.70
2010,10,07,09,00,9.60
2010,10,07,09,01,17.70
2010,10,07,09,02,27.40
2010,10,07,09,03,22.50
2010,10,07,09,04,9.60
2010,10,07,09,05,19.30
2010,10,07,09,06,16.10
2010,10,07,09,07,16.10
2010,10,07,09,08,11.30
2010,10,07,09,09,19.30
2010,10,07,09,10,24.20
2010,10,07,09,11,19.30
2010,10,07,09,12,14.50
2010,10,07,09,13,12.90
2010,10,07,09,14,22.50
2010,10,07,09,15,20.90
2010,10,07,09,16,30.60
2010,10,07,09,17,25.70
2010,10,07,09,18,14.50
2010,10,07,09,19,17.70
2010,10,07,09,20,22.50
2010,10,07,09,21,9.60
2010,10,07,09,22,16.10
2010,10,07,09,23,17.70
2010,10,07,09,24,14.50
2010,10,07,09,25,22.50
2010,10,07,09,26,16.10
2010,10,07,09,27,22.50
2010,10,07,09,28,20.90
2010,10,07,09,29,16.10
2010,10,07,09,30,14.50
2010,10,07,09,31,12.90
2010,10,07,09,32,16.10
2010,10,07,09,33,24.20
2010,10,07,09,34,24.20
2010,10,07,09,35,19.30
2010,10,07,09,36,17.70
2010,10,07,09,37,16.10
2010,10,07,09,38,19.30
2010,10,07,09,39,20.90
2010,10,07,09,40,19.30
2010,10,07,09,41,19.30
2010,10,07,09,42,19.30
2010,10,07,09,43,19.30
2010,10,07,09,44,16.10
2010,10,07,09,45,17.70
2010,10,07,09,46,17.70
2010,10,07,09,47,19.30
2010,10,07,09,48,14.50
2010,10,07,09,49,14.50
2010,10,07,09,50,17.70
2010,10,07,09,51,11.30
2010,10,07,09,52,16.10
2010,10,07,09,53,16.10
2010,10,07,09,54,22.50
2010,10,07,09,55,12.90
2010,10,07,09,56,22.50
2010,10,07,09,57,12.90
2010,10,07,09,58,17.70
2010,10,07,09,59,9.60
2010,10,07,10,00,20.90
2010,10,07,10,01,24.20
2010,10,07,10,02,17.70
2010,10,07,10,03,17.70
2010,10,07,10,04,12.90
2010,10,07,10,05,9.60
2010,10,07,10,06,19.30
2010,10,07,10,07,17.70
2010,10,07,10,08,14.50
2010,10,07,10,09,14.50
2010,10,07,10,10,6.40
2010,10,07,10,11,11.30
2010,10,07,10,12,14.50
2010,10,07,10,13,19.30
2010,10,07,10,14,12.90
2010,10,07,10,15,29.00
2010,10,07,10,16,24.20
2010,10,07,10,17,19.30
2010,10,07,10,18,17.70
2010,10,07,10,19,24.20
2010,10,07,10,20,19.30
2010,10,07,10,21,16.10
2010,10,07,10,22,14.50
2010,10,07,10,23,19.30
2010,10,07,10,24,14.50
2010,10,07,10,25,9.60
2010,10,07,10,26,8.10
2010,10,07,10,27,16.10
2010,10,07,10,28,14.50
2010,10,07,10,29,14.50
2010,10,07,10,30,20.90
2010,10,07,10,31,14.50
2010,10,07,10,32,14.50
2010,10,07,10,33,11.30
2010,10,07,10,34,12.90
2010,10,07,10,35,17.70
2010,10,07,10,36,12.90
2010,10,07,10,37,9.60
2010,10,07,10,38,12.90
2010,10,07,10,39,14.50
2010,10,07,10,40,16.10
2010,10,07,10,41,22.50
2010,10,07,10,42,22.50
2010,10,07,10,43,17.70
2010,10,07,10,44,29.00
2010,10,07,10,45,20.90
2010,10,07,10,46,11.30
2010,10,07,10,47,17.70
2010,10,07,10,48,20.90
2010,10,07,10,49,16.10
2010,10,07,10,50,17.70
2010,10,07,10,51,20.90
2010,10,07,10,52,20.90
2010,10,07,10,53,11.30
2010,10,07,10,54,17.70
2010,10,07,10,55,8.10
2010,10,07,10,56,19.30
2010,10,07,10,57,22.50
2010,10,07,10,58,19.30
2010,10,07,10,59,12.90
2010,10,07,11,00,11.30
2010,10,07,11,01,9.60
2010,10,07,11,02,11.30
2010,10,07,11,03,16.10
2010,10,07,11,04,9.60
2010,10,07,11,05,12.90
2010,10,07,11,06,17.70
2010,10,07,11,07,14.50
2010,10,07,11,08,17.70
2010,10,07,11,09,11.30
2010,10,07,11,10,11.30
2010,10,07,11,11,11.30
2010,10,07,11,12,11.30
2010,10,07,11,13,16.10
2010,10,07,11,14,6.40
2010,10,07,11,15,11.30
2010,10,07,11,16,8.10
2010,10,07,11,17,12.90
2010,10,07,11,18,9.60
2010,10,07,11,19,14.50
2010,10,07,11,20,22.50
2010,10,07,11,21,17.70
2010,10,07,11,22,17.70
2010,10,07,11,23,12.90
2010,10,07,11,24,9.60
2010,10,07,11,25,12.90
2010,10,07,11,26,14.50
2010,10,07,11,27,14.50
2010,10,07,11,28,11.30
2010,10,07,11,29,1.60
2010,10,07,11,30,11.30
2010,10,07,11,31,19.30
2010,10,07,11,32,19.30
2010,10,07,11,33,17.70
2010,10,07,11,34,9.60
2010,10,07,11,35,11.30
2010,10,07,11,36,9.60
2010,10,07,11,37,8.10
2010,10,07,11,38,11.30
2010,10,07,11,39,9.60
2010,10,07,11,40,8.10
2010,10,07,11,41,3.20
2010,10,07,11,42,8.10
2010,10,07,11,43,14.50
2010,10,07,11,44,22.50
2010,10,07,11,45,11.30
2010,10,07,11,46,8.10
2010,10,07,11,47,9.60
2010,10,07,11,48,14.50
2010,10,07,11,49,6.40
2010,10,07,11,50,8.10
2010,10,07,11,51,12.90
2010,10,07,11,52,11.30
2010,10,07,11,53,14.50
2010,10,07,11,54,14.50
2010,10,07,11,55,6.40
2010,10,07,11,56,12.90
2010,10,07,11,57,11.30
2010,10,07,11,58,9.60
2010,10,07,11,59,4.80
2010,10,07,12,00,20.90
2010,10,07,12,01,17.70
2010,10,07,12,02,17.70
2010,10,07,12,03,17.70
2010,10,07,12,04,16.10
2010,10,07,12,05,9.60
2010,10,07,12,06,16.10
2010,10,07,12,07,16.10
2010,10,07,12,08,17.70
2010,10,07,12,09,12.90
2010,10,07,12,10,9.60
2010,10,07,12,11,6.40
2010,10,07,12,12,8.10
2010,10,07,12,13,16.10
2010,10,07,12,14,9.60
2010,10,07,12,15,12.90
2010,10,07,12,16,12.90
2010,10,07,12,17,16.10
2010,10,07,12,18,11.30
2010,10,07,12,19,17.70
2010,10,07,12,20,14.50
2010,10,07,12,21,14.50
2010,10,07,12,22,16.10
2010,10,07,12,23,22.50
2010,10,07,12,24,12.90
2010,10,07,12,25,19.30
2010,10,07,12,26,12.90
2010,10,07,12,27,14.50
2010,10,07,12,28,11.30
2010,10,07,12,29,9.60
2010,10,07,12,30,11.30
2010,10,07,12,31,6.40
2010,10,07,12,32,16.10
2010,10,07,12,33,16.10
2010,10,07,12,34,11.30
2010,10,07,12,35,12.90
2010,10,07,12,36,11.30
2010,10,07,12,37,11.30
2010,10,07,12,38,9.60
2010,10,07,12,39,12.90
2010,10,07,12,40,17.70
2010,10,07,12,41,11.30
2010,10,07,12,42,12.90
2010,10,07,12,43,14.50
2010,10,07,12,44,12.90
2010,10,07,12,45,24.20
2010,10,07,12,46,20.90
2010,10,07,12,47,17.70
2010,10,07,12,48,25.70
2010,10,07,12,49,16.10
2010,10,07,12,50,14.50
2010,10,07,12,51,6.40
2010,10,07,12,52,9.60
2010,10,07,12,53,9.60
2010,10,07,12,54,20.90
2010,10,07,12,55,24.20
2010,10,07,12,56,12.90
2010,10,07,12,57,12.90
2010,10,07,12,58,9.60
2010,10,07,12,59,14.50
2010,10,07,13,00,14.50
2010,10,07,13,01,8.10
2010,10,07,13,02,16.10
2010,10,07,13,03,14.50
2010,10,07,13,04,12.90
2010,10,07,13,05,11.30
2010,10,07,13,06,11.30
2010,10,07,13,07,6.40
2010,10,07,13,08,12.90
2010,10,07,13,09,11.30
2010,10,07,13,10,6.40
2010,10,07,13,11,11.30
2010,10,07,13,12,16.10
2010,10,07,13,13,16.10
2010,10,07,13,14,16.10
2010,10,07,13,15,4.80
2010,10,07,13,16,9.60
2010,10,07,13,17,12.90
2010,10,07,13,18,16.10
2010,10,07,13,19,11.30
2010,10,07,13,20,12.90
2010,10,07,13,21,17.70
2010,10,07,13,22,12.90
2010,10,07,13,23,8.10
2010,10,07,13,24,9.60
2010,10,07,13,25,17.70
2010,10,07,13,26,14.50
2010,10,07,13,27,16.10
2010,10,07,13,28,9.60
2010,10,07,13,29,9.60
2010,10,07,13,30,9.60
2010,10,07,13,31,16.10
2010,10,07,13,32,12.90
2010,10,07,13,33,24.20
2010,10,07,13,34,19.30
2010,10,07,13,35,8.10
2010,10,07,13,36,12.90
2010,10,07,13,37,11.30
2010,10,07,13,38,14.50
2010,10,07,13,39,14.50
2010,10,07,13,40,17.70
2010,10,07,13,41,14.50
2010,10,07,13,42,6.40
2010,10,07,13,43,19.30
2010,10,07,13,44,17.70
2010,10,07,13,45,12.90
2010,10,07,13,46,9.60
2010,10,07,13,47,8.10
2010,10,07,13,48,6.40
2010,10,07,13,49,16.10
2010,10,07,13,50,11.30
2010,10,07,13,51,12.90
2010,10,07,13,52,12.90
2010,10,07,13,53,24.20
2010,10,07,13,54,16.10
2010,10,07,13,55,16.10
2010,10,07,13,56,9.60
2010,10,07,13,57,17.70
2010,10,07,13,58,14.50
2010,10,07,13,59,12.90
2010,10,07,14,00,9.60
2010,10,07,14,01,6.40
2010,10,07,14,02,8.10
2010,10,07,14,03,9.60
2010,10,07,14,04,11.30
2010,10,07,14,05,6.40
2010,10,07,14,06,11.30
2010,10,07,14,07,12.90
2010,10,07,14,08,11.30
2010,10,07,14,09,19.30
2010,10,07,14,10,25.70
2010,10,07,14,11,12.90
2010,10,07,14,12,14.50
2010,10,07,14,13,9.60
2010,10,07,14,14,6.40
2010,10,07,14,15,20.90
2010,10,07,14,16,16.10
2010,10,07,14,17,3.20
2010,10,07,14,18,1.60
2010,10,07,14,19,8.10
2010,10,07,14,20,8.10
2010,10,07,14,21,1.60
2010,10,07,14,22,9.60
2010,10,07,14,23,17.70
2010,10,07,14,24,8.10
2010,10,07,14,25,14.50
2010,10,07,14,26,11.30
2010,10,07,14,27,9.60
2010,10,07,14,28,12.90
2010,10,07,14,29,14.50
2010,10,07,14,30,9.60
2010,10,07,14,31,8.10
2010,10,07,14,32,8.10
2010,10,07,14,33,16.10
2010,10,07,14,34,17.70
2010,10,07,14,35,9.60
2010,10,07,14,36,12.90
2010,10,07,14,37,11.30
2010,10,07,14,38,6.40
2010,10,07,14,39,4.80
2010,10,07,14,40,3.20
2010,10,07,14,41,22.50
2010,10,07,14,42,20.90
2010,10,07,14,43,11.30
2010,10,07,14,44,12.90
2010,10,07,14,45,17.70
2010,10,07,14,46,8.10
2010,10,07,14,47,11.30
2010,10,07,14,48,4.80
2010,10,07,14,49,8.10
2010,10,07,14,50,14.50
2010,10,07,14,51,16.10
2010,10,07,14,52,11.30
2010,10,07,14,53,12.90
2010,10,07,14,54,14.50
2010,10,07,14,55,6.40
2010,10,07,14,56,9.60
2010,10,07,14,57,12.90
2010,10,07,14,58,11.30
2010,10,07,14,59,19.30
2010,10,07,15,00,11.30
2010,10,07,15,01,11.30
2010,10,07,15,02,9.60
2010,10,07,15,03,8.10
2010,10,07,15,04,8.10
2010,10,07,15,05,6.40
2010,10,07,15,06,9.60
2010,10,07,15,07,16.10
2010,10,07,15,08,16.10
2010,10,07,15,09,9.60
2010,10,07,15,10,14.50
2010,10,07,15,11,12.90
2010,10,07,15,12,8.10
2010,10,07,15,13,3.20
2010,10,07,15,14,9.60
2010,10,07,15,15,8.10
2010,10,07,15,16,9.60
2010,10,07,15,17,14.50
2010,10,07,15,18,14.50
2010,10,07,15,19,12.90
2010,10,07,15,20,14.50
2010,10,07,15,21,16.10
2010,10,07,15,22,11.30
2010,10,07,15,23,9.60
2010,10,07,15,24,6.40
2010,10,07,15,25,9.60
2010,10,07,15,26,14.50
2010,10,07,15,27,14.50
2010,10,07,15,28,8.10
2010,10,07,15,29,16.10
2010,10,07,15,30,16.10
2010,10,07,15,31,8.10
2010,10,07,15,32,3.20
2010,10,07,15,33,9.60
2010,10,07,15,34,12.90
2010,10,07,15,35,17.70
2010,10,07,15,36,16.10
2010,10,07,15,37,12.90
2010,10,07,15,38,17.70
2010,10,07,15,39,11.30
2010,10,07,15,40,6.40
2010,10,07,15,41,16.10
2010,10,07,15,42,16.10
2010,10,07,15,43,9.60
2010,10,07,15,44,16.10
2010,10,07,15,45,14.50
2010,10,07,15,46,9.60
2010,10,07,15,47,8.10
2010,10,07,15,48,12.90
2010,10,07,15,49,12.90
2010,10,07,15,50,9.60
2010,10,07,15,51,16.10
2010,10,07,15,52,16.10
2010,10,07,15,53,11.30
2010,10,07,15,54,17.70
2010,10,07,15,55,6.40
2010,10,07,15,56,11.30
2010,10,07,15,57,9.60
2010,10,07,15,58,8.10
2010,10,07,15,59,11.30
2010,10,07,16,00,12.90
2010,10,07,16,01,14.50
2010,10,07,16,02,16.10
2010,10,07,16,03,16.10
2010,10,07,16,04,9.60
2010,10,07,16,05,16.10
2010,10,07,16,06,6.40
2010,10,07,16,07,9.60
2010,10,07,16,08,11.30
2010,10,07,16,09,9.60
2010,10,07,16,10,16.10
2010,10,07,16,11,11.30
2010,10,07,16,12,16.10
2010,10,07,16,13,14.50
2010,10,07,16,14,6.40
2010,10,07,16,15,9.60
2010,10,07,16,16,6.40
2010,10,07,16,17,14.50
2010,10,07,16,18,9.60
2010,10,07,16,19,4.80
2010,10,07,16,20,9.60
2010,10,07,16,21,9.60
2010,10,07,16,22,9.60
2010,10,07,16,23,17.70
2010,10,07,16,24,9.60
2010,10,07,16,25,12.90
2010,10,07,16,26,9.60
2010,10,07,16,27,8.10
2010,10,07,16,28,11.30
2010,10,07,16,29,14.50
2010,10,07,16,30,14.50
2010,10,07,16,31,12.90
2010,10,07,16,32,6.40
2010,10,07,16,33,14.50
2010,10,07,16,34,12.90
2010,10,07,16,35,11.30
2010,10,07,16,36,9.60
2010,10,07,16,37,9.60
2010,10,07,16,38,11.30
2010,10,07,16,39,14.50
2010,10,07,16,40,8.10
2010,10,07,16,41,9.60
2010,10,07,16,42,11.30
2010,10,07,16,43,17.70
2010,10,07,16,44,12.90
2010,10,07,16,45,11.30
2010,10,07,16,46,8.10
2010,10,07,16,47,8.10
2010,10,07,16,48,9.60
2010,10,07,16,49,8.10
2010,10,07,16,50,14.50
2010,10,07,16,51,9.60
2010,10,07,16,52,11.30
2010,10,07,16,53,11.30
2010,10,07,16,54,8.10
2010,10,07,16,55,11.30
2010,10,07,16,56,6.40
2010,10,07,16,57,11.30
2010,10,07,16,58,9.60
2010,10,07,16,59,17.70
2010,10,07,17,00,14.50
2010,10,07,17,01,11.30
2010,10,07,17,02,6.40
2010,10,07,17,03,8.10
2010,10,07,17,04,1.60
2010,10,07,17,05,8.10
2010,10,07,17,06,8.10
2010,10,07,17,07,12.90
2010,10,07,17,08,8.10
2010,10,07,17,09,14.50
2010,10,07,17,10,17.70
2010,10,07,17,11,11.30
2010,10,07,17,12,12.90
2010,10,07,17,13,11.30
2010,10,07,17,14,12.90
2010,10,07,17,15,11.30
2010,10,07,17,16,8.10
2010,10,07,17,17,14.50
2010,10,07,17,18,19.30
2010,10,07,17,19,6.40
2010,10,07,17,20,9.60
2010,10,07,17,21,9.60
2010,10,07,17,22,11.30
2010,10,07,17,23,12.90
2010,10,07,17,24,19.30
2010,10,07,17,25,9.60
2010,10,07,17,26,12.90
2010,10,07,17,27,12.90
2010,10,07,17,28,11.30
2010,10,07,17,29,12.90
2010,10,07,17,30,12.90
2010,10,07,17,31,17.70
2010,10,07,17,32,11.30
2010,10,07,17,33,9.60
2010,10,07,17,34,9.60
2010,10,07,17,35,9.60
2010,10,07,17,36,17.70
2010,10,07,17,37,11.30
2010,10,07,17,38,9.60
2010,10,07,17,39,6.40
2010,10,07,17,40,8.10
2010,10,07,17,41,11.30
2010,10,07,17,42,16.10
2010,10,07,17,43,9.60
2010,10,07,17,44,8.10
2010,10,07,17,45,9.60
2010,10,07,17,46,11.30
2010,10,07,17,47,12.90
2010,10,07,17,48,14.50
2010,10,07,17,49,9.60
2010,10,07,17,50,9.60
2010,10,07,17,51,9.60
2010,10,07,17,52,12.90
2010,10,07,17,53,12.90
2010,10,07,17,54,12.90
2010,10,07,17,55,11.30
2010,10,07,17,56,14.50
2010,10,07,17,57,8.10
2010,10,07,17,58,14.50
2010,10,07,17,59,12.90
2010,10,07,18,00,16.10
2010,10,07,18,01,12.90
2010,10,07,18,02,11.30
2010,10,07,18,03,14.50
2010,10,07,18,04,12.90
2010,10,07,18,05,8.10
2010,10,07,18,06,11.30
2010,10,07,18,07,16.10
2010,10,07,18,08,9.60
2010,10,07,18,09,9.60
2010,10,07,18,10,11.30
2010,10,07,18,11,12.90
2010,10,07,18,12,19.30
2010,10,07,18,13,6.40
2010,10,07,18,14,12.90
2010,10,07,18,15,9.60
2010,10,07,18,16,8.10
2010,10,07,18,17,8.10
2010,10,07,18,18,9.60
2010,10,07,18,19,8.10
2010,10,07,18,20,11.30
2010,10,07,18,21,9.60
2010,10,07,18,22,8.10
2010,10,07,18,23,4.80
2010,10,07,18,24,11.30
2010,10,07,18,25,11.30
2010,10,07,18,26,8.10
2010,10,07,18,27,9.60
2010,10,07,18,28,11.30
2010,10,07,18,29,14.50
2010,10,07,18,30,6.40
2010,10,07,18,31,6.40
2010,10,07,18,32,9.60
2010,10,07,18,33,4.80
2010,10,07,18,34,6.40
2010,10,07,18,35,14.50
2010,10,07,18,36,8.10
2010,10,07,18,37,8.10
2010,10,07,18,38,6.40
2010,10,07,18,39,11.30
2010,10,07,18,40,8.10
2010,10,07,18,41,12.90
2010,10,07,18,42,14.50
2010,10,07,18,43,14.50
2010,10,07,18,44,11.30
2010,10,07,18,45,6.40
2010,10,07,18,46,3.20
2010,10,07,18,47,8.10
2010,10,07,18,48,9.60
2010,10,07,18,49,11.30
2010,10,07,18,50,8.10
2010,10,07,18,51,9.60
2010,10,07,18,52,9.60
2010,10,07,18,53,8.10
2010,10,07,18,54,8.10
2010,10,07,18,55,9.60
2010,10,07,18,56,11.30
2010,10,07,18,57,9.60
2010,10,07,18,58,12.90
2010,10,07,18,59,11.30
2010,10,07,19,00,11.30
2010,10,07,19,01,8.10
2010,10,07,19,02,11.30
2010,10,07,19,03,11.30
2010,10,07,19,04,6.40
2010,10,07,19,05,11.30
2010,10,07,19,06,17.70
2010,10,07,19,07,8.10
2010,10,07,19,08,16.10
2010,10,07,19,09,20.90
2010,10,07,19,10,14.50
2010,10,07,19,11,11.30
2010,10,07,19,12,11.30
2010,10,07,19,13,11.30
2010,10,07,19,14,8.10
2010,10,07,19,15,11.30
2010,10,07,19,16,8.10
2010,10,07,19,17,14.50
2010,10,07,19,18,9.60
2010,10,07,19,19,8.10
2010,10,07,19,20,11.30
2010,10,07,19,21,12.90
2010,10,07,19,22,12.90
2010,10,07,19,23,11.30
2010,10,07,19,24,8.10
2010,10,07,19,25,14.50
2010,10,07,19,26,12.90
2010,10,07,19,27,9.60
2010,10,07,19,28,14.50
2010,10,07,19,29,16.10
2010,10,07,19,30,8.10
2010,10,07,19,31,8.10
2010,10,07,19,32,14.50
2010,10,07,19,33,11.30
2010,10,07,19,34,6.40
2010,10,07,19,35,3.20
2010,10,07,19,36,6.40
2010,10,07,19,37,9.60
2010,10,07,19,38,11.30
2010,10,07,19,39,16.10
2010,10,07,19,40,9.60
2010,10,07,19,41,3.20
2010,10,07,19,42,4.80
2010,10,07,19,43,4.80
2010,10,07,19,44,3.20
2010,10,07,19,45,9.60
2010,10,07,19,46,11.30
2010,10,07,19,47,16.10
2010,10,07,19,48,14.50
2010,10,07,19,49,8.10
2010,10,07,19,50,4.80
2010,10,07,19,51,6.40
2010,10,07,19,52,9.60
2010,10,07,19,53,12.90
2010,10,07,19,54,11.30
2010,10,07,19,55,9.60
2010,10,07,19,56,8.10
2010,10,07,19,57,8.10
2010,10,07,19,58,12.90
2010,10,07,19,59,8.10
2010,10,07,20,00,9.60
2010,10,07,20,01,17.70
2010,10,07,20,02,8.10
2010,10,07,20,03,12.90
2010,10,07,20,04,9.60
2010,10,07,20,05,11.30
2010,10,07,20,06,11.30
2010,10,07,20,07,8.10
2010,10,07,20,08,12.90
2010,10,07,20,09,14.50
2010,10,07,20,10,3.20
2010,10,07,20,11,6.40
2010,10,07,20,12,8.10
2010,10,07,20,13,11.30
2010,10,07,20,14,14.50
2010,10,07,20,15,16.10
2010,10,07,20,16,12.90
2010,10,07,20,17,9.60
2010,10,07,20,18,8.10
2010,10,07,20,19,8.10
2010,10,07,20,20,8.10
2010,10,07,20,21,17.70
2010,10,07,20,22,9.60
2010,10,07,20,23,4.80
2010,10,07,20,24,11.30
2010,10,07,20,25,3.20
2010,10,07,20,26,6.40
2010,10,07,20,27,8.10
2010,10,07,20,28,8.10
2010,10,07,20,29,14.50
2010,10,07,20,30,9.60
2010,10,07,20,31,8.10
2010,10,07,20,32,11.30
2010,10,07,20,33,9.60
2010,10,07,20,34,11.30
2010,10,07,20,35,11.30
2010,10,07,20,36,11.30
2010,10,07,20,37,9.60
2010,10,07,20,38,14.50
2010,10,07,20,39,9.60
2010,10,07,20,40,9.60
2010,10,07,20,41,8.10
2010,10,07,20,42,8.10
2010,10,07,20,43,11.30